owner,sensor,date,latitude,longitude,vertical_datum,wind_speed,wind_to_direction,wind_speed_of_gust,qcFlag 
COMPS,ioos:station:USF.COMPS:C12:1,2017-10-01T00:05:00Z,27.4980,-83.7220,3.0,2.41,-99.99,3.14,'1111122,1111122,1111122' 
COMPS,ioos:station:USF.COMPS:C12:1,2017-10-01T00:35:00Z,27.4980,-83.7220,3.0,2.87,-99.99,3.87,'1111122,1111122,1111122' 
COMPS,ioos:station:USF.COMPS:C12:1,2017-10-01T01:05:00Z,27.4980,-83.7220,3.0,3.75,-99.99,5.27,'1111122,1111122,1111122' 
COMPS,ioos:station:USF.COMPS:C12:1,2017-10-01T01:35:00Z,27.4980,-83.7220,3.0,3.75,-99.99,4.43,'1111122,1111122,1111122' 
COMPS,ioos:station:USF.COMPS:C12:1,2017-10-01T02:05:00Z,27.4980,-83.7220,3.0,4.64,-99.99,6.88,'1111122,1111122,1111122' 
COMPS,ioos:station:USF.COMPS:C12:1,2017-10-01T02:35:00Z,27.4980,-83.7220,3.0,5.88,-99.99,7.09,'1111122,1111122,1111122' 
COMPS,ioos:station:USF.COMPS:C12:1,2017-10-01T03:05:00Z,27.4980,-83.7220,3.0,5.47,-99.99,6.41,'1111122,1111122,1111122' 
COMPS,ioos:station:USF.COMPS:C12:1,2017-10-01T03:35:00Z,27.4980,-83.7220,3.0,5.73,-99.99,7.68,'1111122,1111122,1111122' 
COMPS,ioos:station:USF.COMPS:C12:1,2017-10-01T04:05:00Z,27.4980,-83.7220,3.0,5.87,-99.99,7.29,'1111122,1111122,1111122' 
COMPS,ioos:station:USF.COMPS:C12:1,2017-10-01T04:35:00Z,27.4980,-83.7220,3.0,5.7,-99.99,7.35,'1111122,1111122,1111122' 
COMPS,ioos:station:USF.COMPS:C12:1,2017-10-01T05:05:00Z,27.4980,-83.7220,3.0,7.87,-99.99,9.51,'1111122,1111122,1111122' 
COMPS,ioos:station:USF.COMPS:C12:1,2017-10-01T05:35:00Z,27.4980,-83.7220,3.0,7.67,-99.99,9.47,'1111122,1111122,1111122' 
COMPS,ioos:station:USF.COMPS:C12:1,2017-10-01T06:05:00Z,27.4980,-83.7220,3.0,7.15,-99.99,9.01,'1111122,1111122,1111122' 
COMPS,ioos:station:USF.COMPS:C12:1,2017-10-01T06:35:00Z,27.4980,-83.7220,3.0,6.83,-99.99,8.44,'1111122,1111122,1111122' 
COMPS,ioos:station:USF.COMPS:C12:1,2017-10-01T07:05:00Z,27.4980,-83.7220,3.0,6.73,-99.99,8.03,'1111122,1111122,1111122' 
COMPS,ioos:station:USF.COMPS:C12:1,2017-10-01T07:35:00Z,27.4980,-83.7220,3.0,6.5,-99.99,7.84,'1111122,1111122,1111122' 
COMPS,ioos:station:USF.COMPS:C12:1,2017-10-01T08:05:00Z,27.4980,-83.7220,3.0,6.62,-99.99,7.96,'1111122,1111122,1111122' 
COMPS,ioos:station:USF.COMPS:C12:1,2017-10-01T08:35:00Z,27.4980,-83.7220,3.0,7.23,-99.99,8.65,'1111122,1111122,1111122' 
COMPS,ioos:station:USF.COMPS:C12:1,2017-10-01T09:05:00Z,27.4980,-83.7220,3.0,6.78,-99.99,8.2,'1111122,1111122,1111122' 
COMPS,ioos:station:USF.COMPS:C12:1,2017-10-01T09:35:00Z,27.4980,-83.7220,3.0,6.52,-99.99,7.81,'1111122,1111122,1111122' 
COMPS,ioos:station:USF.COMPS:C12:1,2017-10-01T10:05:00Z,27.4980,-83.7220,3.0,6.76,-99.99,9.27,'1111122,1111122,1111122' 
COMPS,ioos:station:USF.COMPS:C12:1,2017-10-01T10:35:00Z,27.4980,-83.7220,3.0,6.96,-99.99,8.4,'1111122,1111122,1111122' 
COMPS,ioos:station:USF.COMPS:C12:1,2017-10-01T11:05:00Z,27.4980,-83.7220,3.0,7.19,-99.99,8.9,'1111122,1111122,1111122' 
COMPS,ioos:station:USF.COMPS:C12:1,2017-10-01T11:35:00Z,27.4980,-83.7220,3.0,7.39,-99.99,8.92,'1111122,1111122,1111122' 
COMPS,ioos:station:USF.COMPS:C12:1,2017-10-01T12:05:00Z,27.4980,-83.7220,3.0,7.05,-99.99,9.12,'1111122,1111122,1111122' 
COMPS,ioos:station:USF.COMPS:C12:1,2017-10-01T12:35:00Z,27.4980,-83.7220,3.0,7.63,-99.99,9.08,'1111122,1111122,1111122' 
COMPS,ioos:station:USF.COMPS:C12:1,2017-10-01T13:05:00Z,27.4980,-83.7220,3.0,7.18,-99.99,8.79,'1111122,1111122,1111122' 
COMPS,ioos:station:USF.COMPS:C12:1,2017-10-01T13:35:00Z,27.4980,-83.7220,3.0,7.93,-99.99,9.77,'1111122,1111122,1111122' 
COMPS,ioos:station:USF.COMPS:C12:1,2017-10-01T14:05:00Z,27.4980,-83.7220,3.0,8.09,-99.99,9.3,'1111122,1111122,1111122' 
COMPS,ioos:station:USF.COMPS:C12:1,2017-10-01T14:35:00Z,27.4980,-83.7220,3.0,8.35,-99.99,9.9,'1111122,1111122,1111122' 
COMPS,ioos:station:USF.COMPS:C12:1,2017-10-01T15:05:00Z,27.4980,-83.7220,3.0,7.52,-99.99,8.98,'1111122,1111122,1111122' 
COMPS,ioos:station:USF.COMPS:C12:1,2017-10-01T15:35:00Z,27.4980,-83.7220,3.0,7.57,-99.99,9.49,'1111122,1111122,1111122' 
COMPS,ioos:station:USF.COMPS:C12:1,2017-10-01T16:05:00Z,27.4980,-83.7220,3.0,7.55,-99.99,9.42,'1111122,1111122,1111122' 
COMPS,ioos:station:USF.COMPS:C12:1,2017-10-01T16:35:00Z,27.4980,-83.7220,3.0,7.27,-99.99,8.99,'1111122,1111122,1111122' 
COMPS,ioos:station:USF.COMPS:C12:1,2017-10-01T17:05:00Z,27.4980,-83.7220,3.0,7.48,-99.99,9.28,'1111122,1111122,1111122' 
COMPS,ioos:station:USF.COMPS:C12:1,2017-10-01T17:35:00Z,27.4980,-83.7220,3.0,7.62,-99.99,9.45,'1111122,1111122,1111122' 
COMPS,ioos:station:USF.COMPS:C12:1,2017-10-01T18:05:00Z,27.4980,-83.7220,3.0,7.05,-99.99,8.55,'1111122,1111122,1111122' 
COMPS,ioos:station:USF.COMPS:C12:1,2017-10-01T18:35:00Z,27.4980,-83.7220,3.0,6.64,-99.99,8.16,'1111122,1111122,1111122' 
COMPS,ioos:station:USF.COMPS:C12:1,2017-10-01T19:05:00Z,27.4980,-83.7220,3.0,6.77,-99.99,8.81,'1111122,1111122,1111122' 
COMPS,ioos:station:USF.COMPS:C12:1,2017-10-01T19:35:00Z,27.4980,-83.7220,3.0,6.15,-99.99,7.64,'1111122,1111122,1111122' 
COMPS,ioos:station:USF.COMPS:C12:1,2017-10-01T20:05:00Z,27.4980,-83.7220,3.0,5.11,-99.99,6.71,'1111122,1111122,1111122' 
COMPS,ioos:station:USF.COMPS:C12:1,2017-10-01T20:35:00Z,27.4980,-83.7220,3.0,4.55,-99.99,5.71,'1111122,1111122,1111122' 
COMPS,ioos:station:USF.COMPS:C12:1,2017-10-01T21:05:00Z,27.4980,-83.7220,3.0,4.39,-99.99,5.35,'1111122,1111122,1111122' 
COMPS,ioos:station:USF.COMPS:C12:1,2017-10-01T21:35:00Z,27.4980,-83.7220,3.0,3.7,-99.99,4.76,'1111122,1111122,1111122' 
COMPS,ioos:station:USF.COMPS:C12:1,2017-10-01T22:05:00Z,27.4980,-83.7220,3.0,3.11,-99.99,4.13,'1111122,1111122,1111122' 
COMPS,ioos:station:USF.COMPS:C12:1,2017-10-01T22:35:00Z,27.4980,-83.7220,3.0,2.52,-99.99,3.07,'1111122,1111122,1111122' 
COMPS,ioos:station:USF.COMPS:C12:1,2017-10-01T23:05:00Z,27.4980,-83.7220,3.0,2.61,-99.99,3.23,'1111122,1111122,1111122' 
COMPS,ioos:station:USF.COMPS:C12:1,2017-10-01T23:35:00Z,27.4980,-83.7220,3.0,3.67,-99.99,4.83,'1111122,1111122,1111122' 
COMPS,ioos:station:USF.COMPS:C12:1,2017-10-02T00:05:00Z,27.4980,-83.7220,3.0,5.84,-99.99,8.37,'1111122,1111122,1111122' 
COMPS,ioos:station:USF.COMPS:C12:1,2017-10-02T00:35:00Z,27.4980,-83.7220,3.0,5.4,-99.99,7.18,'1111122,1111122,1111122' 
COMPS,ioos:station:USF.COMPS:C12:1,2017-10-02T01:05:00Z,27.4980,-83.7220,3.0,6.02,-99.99,8.16,'1111122,1111122,1111122' 
COMPS,ioos:station:USF.COMPS:C12:1,2017-10-02T01:35:00Z,27.4980,-83.7220,3.0,7.79,-99.99,9.6,'1111122,1111122,1111122' 
COMPS,ioos:station:USF.COMPS:C12:1,2017-10-02T02:05:00Z,27.4980,-83.7220,3.0,7.24,-99.99,8.66,'1111122,1111122,1111122' 
COMPS,ioos:station:USF.COMPS:C12:1,2017-10-02T02:35:00Z,27.4980,-83.7220,3.0,8.88,-99.99,11.22,'1111122,1111122,1111122' 
COMPS,ioos:station:USF.COMPS:C12:1,2017-10-02T03:05:00Z,27.4980,-83.7220,3.0,8.86,-99.99,10.83,'1111122,1111122,1111122' 
COMPS,ioos:station:USF.COMPS:C12:1,2017-10-02T03:35:00Z,27.4980,-83.7220,3.0,10.21,-99.99,12.52,'1111122,1111122,1111122' 
COMPS,ioos:station:USF.COMPS:C12:1,2017-10-02T04:05:00Z,27.4980,-83.7220,3.0,9.58,-99.99,11.61,'1111122,1111122,1111122' 
COMPS,ioos:station:USF.COMPS:C12:1,2017-10-02T04:35:00Z,27.4980,-83.7220,3.0,9.68,-99.99,11.59,'1111122,1111122,1111122' 
COMPS,ioos:station:USF.COMPS:C12:1,2017-10-02T05:05:00Z,27.4980,-83.7220,3.0,9.09,-99.99,11.35,'1111122,1111122,1111122' 
COMPS,ioos:station:USF.COMPS:C12:1,2017-10-02T05:35:00Z,27.4980,-83.7220,3.0,9.38,-99.99,11.37,'1111122,1111122,1111122' 
COMPS,ioos:station:USF.COMPS:C12:1,2017-10-02T06:05:00Z,27.4980,-83.7220,3.0,9.75,-99.99,11.69,'1111122,1111122,1111122' 
COMPS,ioos:station:USF.COMPS:C12:1,2017-10-02T06:35:00Z,27.4980,-83.7220,3.0,10.14,-99.99,12.47,'1111122,1111122,1111122' 
COMPS,ioos:station:USF.COMPS:C12:1,2017-10-02T07:05:00Z,27.4980,-83.7220,3.0,9.83,-99.99,11.66,'1111122,1111122,1111122' 
COMPS,ioos:station:USF.COMPS:C12:1,2017-10-02T07:35:00Z,27.4980,-83.7220,3.0,9.32,-99.99,11.41,'1111122,1111122,1111122' 
COMPS,ioos:station:USF.COMPS:C12:1,2017-10-02T08:05:00Z,27.4980,-83.7220,3.0,9.62,-99.99,11.58,'1111122,1111122,1111122' 
COMPS,ioos:station:USF.COMPS:C12:1,2017-10-02T08:35:00Z,27.4980,-83.7220,3.0,9.37,-99.99,11.58,'1111122,1111122,1111122' 
COMPS,ioos:station:USF.COMPS:C12:1,2017-10-02T09:05:00Z,27.4980,-83.7220,3.0,9.62,-99.99,12.13,'1111122,1111122,1111122' 
COMPS,ioos:station:USF.COMPS:C12:1,2017-10-02T09:35:00Z,27.4980,-83.7220,3.0,9.49,-99.99,11.83,'1111122,1111122,1111122' 
COMPS,ioos:station:USF.COMPS:C12:1,2017-10-02T10:05:00Z,27.4980,-83.7220,3.0,9.49,-99.99,11.51,'1111122,1111122,1111122' 
COMPS,ioos:station:USF.COMPS:C12:1,2017-10-02T10:35:00Z,27.4980,-83.7220,3.0,9.34,-99.99,11.87,'1111122,1111122,1111122' 
COMPS,ioos:station:USF.COMPS:C12:1,2017-10-02T11:05:00Z,27.4980,-83.7220,3.0,10.42,-99.99,12.79,'1111122,1111122,1111122' 
COMPS,ioos:station:USF.COMPS:C12:1,2017-10-02T11:35:00Z,27.4980,-83.7220,3.0,10.31,-99.99,12.27,'1111122,1111122,1111122' 
COMPS,ioos:station:USF.COMPS:C12:1,2017-10-02T12:05:00Z,27.4980,-83.7220,3.0,10.97,-99.99,13.28,'1111122,1111122,1111122' 
COMPS,ioos:station:USF.COMPS:C12:1,2017-10-02T12:35:00Z,27.4980,-83.7220,3.0,9.99,-99.99,11.77,'1111122,1111122,1111122' 
COMPS,ioos:station:USF.COMPS:C12:1,2017-10-02T13:05:00Z,27.4980,-83.7220,3.0,9.78,-99.99,11.98,'1111122,1111122,1111122' 
COMPS,ioos:station:USF.COMPS:C12:1,2017-10-02T13:35:00Z,27.4980,-83.7220,3.0,10.91,-99.99,13.75,'1111122,1111122,1111122' 
COMPS,ioos:station:USF.COMPS:C12:1,2017-10-02T14:05:00Z,27.4980,-83.7220,3.0,11.13,-99.99,14.02,'1111122,1111122,1111122' 
COMPS,ioos:station:USF.COMPS:C12:1,2017-10-02T14:35:00Z,27.4980,-83.7220,3.0,9.86,-99.99,11.87,'1111122,1111122,1111122' 
COMPS,ioos:station:USF.COMPS:C12:1,2017-10-02T15:05:00Z,27.4980,-83.7220,3.0,10.03,-99.99,12.61,'1111122,1111122,1111122' 
COMPS,ioos:station:USF.COMPS:C12:1,2017-10-02T15:35:00Z,27.4980,-83.7220,3.0,9.35,-99.99,11.85,'1111122,1111122,1111122' 
COMPS,ioos:station:USF.COMPS:C12:1,2017-10-02T16:05:00Z,27.4980,-83.7220,3.0,9.6,-99.99,11.51,'1111122,1111122,1111122' 
COMPS,ioos:station:USF.COMPS:C12:1,2017-10-02T16:35:00Z,27.4980,-83.7220,3.0,8.95,-99.99,11.39,'1111122,1111122,1111122' 
COMPS,ioos:station:USF.COMPS:C12:1,2017-10-02T17:05:00Z,27.4980,-83.7220,3.0,9.15,-99.99,11.76,'1111122,1111122,1111122' 
COMPS,ioos:station:USF.COMPS:C12:1,2017-10-02T17:35:00Z,27.4980,-83.7220,3.0,9.38,-99.99,11.57,'1111122,1111122,1111122' 
COMPS,ioos:station:USF.COMPS:C12:1,2017-10-02T18:05:00Z,27.4980,-83.7220,3.0,9.52,-99.99,12.18,'1111122,1111122,1111122' 
COMPS,ioos:station:USF.COMPS:C12:1,2017-10-02T18:35:00Z,27.4980,-83.7220,3.0,9.22,-99.99,11.62,'1111122,1111122,1111122' 
COMPS,ioos:station:USF.COMPS:C12:1,2017-10-02T19:05:00Z,27.4980,-83.7220,3.0,9.33,-99.99,11.34,'1111122,1111122,1111122' 
COMPS,ioos:station:USF.COMPS:C12:1,2017-10-02T19:35:00Z,27.4980,-83.7220,3.0,9.8,-99.99,12.26,'1111122,1111122,1111122' 
COMPS,ioos:station:USF.COMPS:C12:1,2017-10-02T20:05:00Z,27.4980,-83.7220,3.0,9.99,-99.99,12.63,'1111122,1111122,1111122' 
COMPS,ioos:station:USF.COMPS:C12:1,2017-10-02T20:35:00Z,27.4980,-83.7220,3.0,9.74,-99.99,12.03,'1111122,1111122,1111122' 
COMPS,ioos:station:USF.COMPS:C12:1,2017-10-02T21:05:00Z,27.4980,-83.7220,3.0,9.68,-99.99,11.7,'1111122,1111122,1111122' 
COMPS,ioos:station:USF.COMPS:C12:1,2017-10-02T21:35:00Z,27.4980,-83.7220,3.0,9.93,-99.99,11.82,'1111122,1111122,1111122' 
COMPS,ioos:station:USF.COMPS:C12:1,2017-10-02T22:05:00Z,27.4980,-83.7220,3.0,8.98,-99.99,10.64,'1111122,1111122,1111122' 
COMPS,ioos:station:USF.COMPS:C12:1,2017-10-02T22:35:00Z,27.4980,-83.7220,3.0,7.95,-99.99,10.14,'1111122,1111122,1111122' 
COMPS,ioos:station:USF.COMPS:C12:1,2017-10-02T23:05:00Z,27.4980,-83.7220,3.0,8.25,-99.99,10.91,'1111122,1111122,1111122' 
COMPS,ioos:station:USF.COMPS:C12:1,2017-10-02T23:35:00Z,27.4980,-83.7220,3.0,9.08,-99.99,11.28,'1111122,1111122,1111122' 
COMPS,ioos:station:USF.COMPS:C12:1,2017-10-03T00:05:00Z,27.4980,-83.7220,3.0,8.99,-99.99,11.28,'1111122,1111122,1111122' 
COMPS,ioos:station:USF.COMPS:C12:1,2017-10-03T00:35:00Z,27.4980,-83.7220,3.0,9.26,-99.99,11.35,'1111122,1111122,1111122' 
COMPS,ioos:station:USF.COMPS:C12:1,2017-10-03T01:05:00Z,27.4980,-83.7220,3.0,9.54,-99.99,11.71,'1111122,1111122,1111122' 
COMPS,ioos:station:USF.COMPS:C12:1,2017-10-03T01:35:00Z,27.4980,-83.7220,3.0,9.82,-99.99,12.29,'1111122,1111122,1111122' 
COMPS,ioos:station:USF.COMPS:C12:1,2017-10-03T02:05:00Z,27.4980,-83.7220,3.0,10.38,-99.99,13.29,'1111122,1111122,1111122' 
COMPS,ioos:station:USF.COMPS:C12:1,2017-10-03T02:35:00Z,27.4980,-83.7220,3.0,10.88,-99.99,13.69,'1111122,1111122,1111122' 
COMPS,ioos:station:USF.COMPS:C12:1,2017-10-03T03:05:00Z,27.4980,-83.7220,3.0,11.11,-99.99,13.84,'1111122,1111122,1111122' 
COMPS,ioos:station:USF.COMPS:C12:1,2017-10-03T03:35:00Z,27.4980,-83.7220,3.0,11.37,-99.99,13.57,'1111122,1111122,1111122' 
COMPS,ioos:station:USF.COMPS:C12:1,2017-10-03T04:05:00Z,27.4980,-83.7220,3.0,10.8,-99.99,13.7,'1111122,1111122,1111122' 
COMPS,ioos:station:USF.COMPS:C12:1,2017-10-03T04:35:00Z,27.4980,-83.7220,3.0,10.72,-99.99,13.61,'1111122,1111122,1111122' 
COMPS,ioos:station:USF.COMPS:C12:1,2017-10-03T05:05:00Z,27.4980,-83.7220,3.0,10.23,-99.99,12.3,'1111122,1111122,1111122' 
COMPS,ioos:station:USF.COMPS:C12:1,2017-10-03T05:35:00Z,27.4980,-83.7220,3.0,10.42,-99.99,12.64,'1111122,1111122,1111122' 
COMPS,ioos:station:USF.COMPS:C12:1,2017-10-03T06:05:00Z,27.4980,-83.7220,3.0,10.43,-99.99,12.76,'1111122,1111122,1111122' 
COMPS,ioos:station:USF.COMPS:C12:1,2017-10-03T06:35:00Z,27.4980,-83.7220,3.0,10.58,-99.99,13.6,'1111122,1111122,1111122' 
COMPS,ioos:station:USF.COMPS:C12:1,2017-10-03T07:05:00Z,27.4980,-83.7220,3.0,10.09,-99.99,12.45,'1111122,1111122,1111122' 
COMPS,ioos:station:USF.COMPS:C12:1,2017-10-03T07:35:00Z,27.4980,-83.7220,3.0,10.18,-99.99,13.03,'1111122,1111122,1111122' 
COMPS,ioos:station:USF.COMPS:C12:1,2017-10-03T08:05:00Z,27.4980,-83.7220,3.0,10.52,-99.99,13.44,'1111122,1111122,1111122' 
COMPS,ioos:station:USF.COMPS:C12:1,2017-10-03T08:35:00Z,27.4980,-83.7220,3.0,10.6,-99.99,13.18,'1111122,1111122,1111122' 
COMPS,ioos:station:USF.COMPS:C12:1,2017-10-03T09:05:00Z,27.4980,-83.7220,3.0,9.73,-99.99,11.73,'1111122,1111122,1111122' 
COMPS,ioos:station:USF.COMPS:C12:1,2017-10-03T09:35:00Z,27.4980,-83.7220,3.0,9.85,-99.99,11.99,'1111122,1111122,1111122' 
COMPS,ioos:station:USF.COMPS:C12:1,2017-10-03T10:05:00Z,27.4980,-83.7220,3.0,10.32,-99.99,13.09,'1111122,1111122,1111122' 
COMPS,ioos:station:USF.COMPS:C12:1,2017-10-03T10:35:00Z,27.4980,-83.7220,3.0,10.38,-99.99,13.05,'1111122,1111122,1111122' 
COMPS,ioos:station:USF.COMPS:C12:1,2017-10-03T11:05:00Z,27.4980,-83.7220,3.0,10.67,-99.99,13.48,'1111122,1111122,1111122' 
COMPS,ioos:station:USF.COMPS:C12:1,2017-10-03T11:35:00Z,27.4980,-83.7220,3.0,11.37,-99.99,14.17,'1111122,1111122,1111122' 
COMPS,ioos:station:USF.COMPS:C12:1,2017-10-03T12:05:00Z,27.4980,-83.7220,3.0,11.4,-99.99,14.04,'1111122,1111122,1111122' 
COMPS,ioos:station:USF.COMPS:C12:1,2017-10-03T12:35:00Z,27.4980,-83.7220,3.0,12.62,-99.99,15.25,'1111122,1111122,1111122' 
COMPS,ioos:station:USF.COMPS:C12:1,2017-10-03T13:05:00Z,27.4980,-83.7220,3.0,11.12,-99.99,13.5,'1111122,1111122,1111122' 
COMPS,ioos:station:USF.COMPS:C12:1,2017-10-03T13:35:00Z,27.4980,-83.7220,3.0,10.97,-99.99,13.44,'1111122,1111122,1111122' 
COMPS,ioos:station:USF.COMPS:C12:1,2017-10-03T14:05:00Z,27.4980,-83.7220,3.0,11.2,-99.99,14.01,'1111122,1111122,1111122' 
COMPS,ioos:station:USF.COMPS:C12:1,2017-10-03T14:35:00Z,27.4980,-83.7220,3.0,11.58,-99.99,14.49,'1111122,1111122,1111122' 
COMPS,ioos:station:USF.COMPS:C12:1,2017-10-03T15:05:00Z,27.4980,-83.7220,3.0,11.11,-99.99,13.85,'1111122,1111122,1111122' 
COMPS,ioos:station:USF.COMPS:C12:1,2017-10-03T15:35:00Z,27.4980,-83.7220,3.0,11.18,-99.99,13.73,'1111122,1111122,1111122' 
COMPS,ioos:station:USF.COMPS:C12:1,2017-10-03T16:05:00Z,27.4980,-83.7220,3.0,10.47,-99.99,12.79,'1111122,1111122,1111122' 
COMPS,ioos:station:USF.COMPS:C12:1,2017-10-03T16:35:00Z,27.4980,-83.7220,3.0,10.98,-99.99,13.27,'1111122,1111122,1111122' 
COMPS,ioos:station:USF.COMPS:C12:1,2017-10-03T17:05:00Z,27.4980,-83.7220,3.0,10.55,-99.99,12.7,'1111122,1111122,1111122' 
COMPS,ioos:station:USF.COMPS:C12:1,2017-10-03T17:35:00Z,27.4980,-83.7220,3.0,10.06,-99.99,12.82,'1111122,1111122,1111122' 
COMPS,ioos:station:USF.COMPS:C12:1,2017-10-03T18:05:00Z,27.4980,-83.7220,3.0,10.52,-99.99,12.72,'1111122,1111122,1111122' 
COMPS,ioos:station:USF.COMPS:C12:1,2017-10-03T18:35:00Z,27.4980,-83.7220,3.0,9.67,-99.99,12.36,'1111122,1111122,1111122' 
COMPS,ioos:station:USF.COMPS:C12:1,2017-10-03T19:05:00Z,27.4980,-83.7220,3.0,10.68,-99.99,12.71,'1111122,1111122,1111122' 
COMPS,ioos:station:USF.COMPS:C12:1,2017-10-03T19:35:00Z,27.4980,-83.7220,3.0,11.6,-99.99,14.11,'1111122,1111122,1111122' 
COMPS,ioos:station:USF.COMPS:C12:1,2017-10-03T20:05:00Z,27.4980,-83.7220,3.0,10.38,-99.99,12.43,'1111122,1111122,1111122' 
COMPS,ioos:station:USF.COMPS:C12:1,2017-10-03T20:35:00Z,27.4980,-83.7220,3.0,11.29,-99.99,14.63,'1111122,1111122,1111122' 
COMPS,ioos:station:USF.COMPS:C12:1,2017-10-03T21:05:00Z,27.4980,-83.7220,3.0,10.81,-99.99,14.03,'1111122,1111122,1111122' 
COMPS,ioos:station:USF.COMPS:C12:1,2017-10-03T21:35:00Z,27.4980,-83.7220,3.0,11.33,-99.99,14.75,'1111122,1111122,1111122' 
COMPS,ioos:station:USF.COMPS:C12:1,2017-10-03T22:05:00Z,27.4980,-83.7220,3.0,11.94,-99.99,14.59,'1111122,1111122,1111122' 
COMPS,ioos:station:USF.COMPS:C12:1,2017-10-03T22:35:00Z,27.4980,-83.7220,3.0,11.97,-99.99,17.78,'1111122,1111122,1111122' 
COMPS,ioos:station:USF.COMPS:C12:1,2017-10-03T23:05:00Z,27.4980,-83.7220,3.0,12.75,-99.99,17.25,'1111122,1111122,1111122' 
COMPS,ioos:station:USF.COMPS:C12:1,2017-10-03T23:35:00Z,27.4980,-83.7220,3.0,11.95,-99.99,15.82,'1111122,1111122,1111122' 
COMPS,ioos:station:USF.COMPS:C12:1,2017-10-04T00:05:00Z,27.4980,-83.7220,3.0,12.38,-99.99,15.6,'1111122,1111122,1111122' 
COMPS,ioos:station:USF.COMPS:C12:1,2017-10-04T00:35:00Z,27.4980,-83.7220,3.0,12.66,-99.99,15.65,'1111122,1111122,1111122' 
COMPS,ioos:station:USF.COMPS:C12:1,2017-10-04T01:05:00Z,27.4980,-83.7220,3.0,12.67,-99.99,15.53,'1111122,1111122,1111122' 
COMPS,ioos:station:USF.COMPS:C12:1,2017-10-04T01:35:00Z,27.4980,-83.7220,3.0,12.83,-99.99,16.11,'1111122,1111122,1111122' 
COMPS,ioos:station:USF.COMPS:C12:1,2017-10-04T02:05:00Z,27.4980,-83.7220,3.0,12.87,-99.99,16.41,'1111122,1111122,1111122' 
COMPS,ioos:station:USF.COMPS:C12:1,2017-10-04T02:35:00Z,27.4980,-83.7220,3.0,12.3,-99.99,14.92,'1111122,1111122,1111122' 
COMPS,ioos:station:USF.COMPS:C12:1,2017-10-04T03:05:00Z,27.4980,-83.7220,3.0,12.11,-99.99,15.32,'1111122,1111122,1111122' 
COMPS,ioos:station:USF.COMPS:C12:1,2017-10-04T03:35:00Z,27.4980,-83.7220,3.0,11.98,-99.99,14.75,'1111122,1111122,1111122' 
COMPS,ioos:station:USF.COMPS:C12:1,2017-10-04T04:05:00Z,27.4980,-83.7220,3.0,12.14,-99.99,15.34,'1111122,1111122,1111122' 
COMPS,ioos:station:USF.COMPS:C12:1,2017-10-04T04:35:00Z,27.4980,-83.7220,3.0,11.58,-99.99,13.86,'1111122,1111122,1111122' 
COMPS,ioos:station:USF.COMPS:C12:1,2017-10-04T05:05:00Z,27.4980,-83.7220,3.0,11.47,-99.99,14.03,'1111122,1111122,1111122' 
COMPS,ioos:station:USF.COMPS:C12:1,2017-10-04T05:35:00Z,27.4980,-83.7220,3.0,11.18,-99.99,13.55,'1111122,1111122,1111122' 
COMPS,ioos:station:USF.COMPS:C12:1,2017-10-04T06:05:00Z,27.4980,-83.7220,3.0,11.31,-99.99,14.58,'1111122,1111122,1111122' 
COMPS,ioos:station:USF.COMPS:C12:1,2017-10-04T06:35:00Z,27.4980,-83.7220,3.0,11.02,-99.99,13.68,'1111122,1111122,1111122' 
COMPS,ioos:station:USF.COMPS:C12:1,2017-10-04T07:05:00Z,27.4980,-83.7220,3.0,11.28,-99.99,13.59,'1111122,1111122,1111122' 
COMPS,ioos:station:USF.COMPS:C12:1,2017-10-04T07:35:00Z,27.4980,-83.7220,3.0,11.36,-99.99,14.61,'1111122,1111122,1111122' 
COMPS,ioos:station:USF.COMPS:C12:1,2017-10-04T08:05:00Z,27.4980,-83.7220,3.0,11.82,-99.99,14.15,'1111122,1111122,1111122' 
COMPS,ioos:station:USF.COMPS:C12:1,2017-10-04T08:35:00Z,27.4980,-83.7220,3.0,11.77,-99.99,14.49,'1111122,1111122,1111122' 
COMPS,ioos:station:USF.COMPS:C12:1,2017-10-04T09:05:00Z,27.4980,-83.7220,3.0,12.25,-99.99,15.11,'1111122,1111122,1111122' 
COMPS,ioos:station:USF.COMPS:C12:1,2017-10-04T09:35:00Z,27.4980,-83.7220,3.0,11.85,-99.99,14.51,'1111122,1111122,1111122' 
COMPS,ioos:station:USF.COMPS:C12:1,2017-10-04T10:05:00Z,27.4980,-83.7220,3.0,11.34,-99.99,14.16,'1111122,1111122,1111122' 
COMPS,ioos:station:USF.COMPS:C12:1,2017-10-04T10:35:00Z,27.4980,-83.7220,3.0,10.76,-99.99,12.98,'1111122,1111122,1111122' 
COMPS,ioos:station:USF.COMPS:C12:1,2017-10-04T11:05:00Z,27.4980,-83.7220,3.0,11.38,-99.99,13.43,'1111122,1111122,1111122' 
COMPS,ioos:station:USF.COMPS:C12:1,2017-10-04T11:35:00Z,27.4980,-83.7220,3.0,10.88,-99.99,14.0,'1111122,1111122,1111122' 
COMPS,ioos:station:USF.COMPS:C12:1,2017-10-04T12:05:00Z,27.4980,-83.7220,3.0,11.65,-99.99,14.1,'1111122,1111122,1111122' 
COMPS,ioos:station:USF.COMPS:C12:1,2017-10-04T12:35:00Z,27.4980,-83.7220,3.0,10.91,-99.99,14.53,'1111122,1111122,1111122' 
COMPS,ioos:station:USF.COMPS:C12:1,2017-10-04T13:05:00Z,27.4980,-83.7220,3.0,11.56,-99.99,14.32,'1111122,1111122,1111122' 
COMPS,ioos:station:USF.COMPS:C12:1,2017-10-04T13:35:00Z,27.4980,-83.7220,3.0,11.07,-99.99,13.75,'1111122,1111122,1111122' 
COMPS,ioos:station:USF.COMPS:C12:1,2017-10-04T14:05:00Z,27.4980,-83.7220,3.0,10.82,-99.99,14.29,'1111122,1111122,1111122' 
COMPS,ioos:station:USF.COMPS:C12:1,2017-10-04T14:35:00Z,27.4980,-83.7220,3.0,10.75,-99.99,13.09,'1111122,1111122,1111122' 
COMPS,ioos:station:USF.COMPS:C12:1,2017-10-04T15:05:00Z,27.4980,-83.7220,3.0,10.62,-99.99,13.24,'1111122,1111122,1111122' 
COMPS,ioos:station:USF.COMPS:C12:1,2017-10-04T15:35:00Z,27.4980,-83.7220,3.0,9.47,-99.99,12.15,'1111122,1111122,1111122' 
COMPS,ioos:station:USF.COMPS:C12:1,2017-10-04T16:05:00Z,27.4980,-83.7220,3.0,9.95,-99.99,11.95,'1111122,1111122,1111122' 
COMPS,ioos:station:USF.COMPS:C12:1,2017-10-04T16:35:00Z,27.4980,-83.7220,3.0,10.28,-99.99,12.66,'1111122,1111122,1111122' 
COMPS,ioos:station:USF.COMPS:C12:1,2017-10-04T17:05:00Z,27.4980,-83.7220,3.0,9.8,-99.99,12.13,'1111122,1111122,1111122' 
COMPS,ioos:station:USF.COMPS:C12:1,2017-10-04T17:35:00Z,27.4980,-83.7220,3.0,9.67,-99.99,13.1,'1111122,1111122,1111122' 
COMPS,ioos:station:USF.COMPS:C12:1,2017-10-04T18:05:00Z,27.4980,-83.7220,3.0,9.07,-99.99,11.53,'1111122,1111122,1111122' 
COMPS,ioos:station:USF.COMPS:C12:1,2017-10-04T18:35:00Z,27.4980,-83.7220,3.0,9.03,-99.99,11.06,'1111122,1111122,1111122' 
COMPS,ioos:station:USF.COMPS:C12:1,2017-10-04T19:05:00Z,27.4980,-83.7220,3.0,9.2,-99.99,12.01,'1111122,1111122,1111122' 
COMPS,ioos:station:USF.COMPS:C12:1,2017-10-04T19:35:00Z,27.4980,-83.7220,3.0,9.09,-99.99,11.18,'1111122,1111122,1111122' 
COMPS,ioos:station:USF.COMPS:C12:1,2017-10-04T20:05:00Z,27.4980,-83.7220,3.0,8.59,-99.99,10.71,'1111122,1111122,1111122' 
COMPS,ioos:station:USF.COMPS:C12:1,2017-10-04T20:35:00Z,27.4980,-83.7220,3.0,8.91,-99.99,11.29,'1111122,1111122,1111122' 
COMPS,ioos:station:USF.COMPS:C12:1,2017-10-04T21:05:00Z,27.4980,-83.7220,3.0,13.7,-99.99,17.52,'1111122,1111122,1111122' 
COMPS,ioos:station:USF.COMPS:C12:1,2017-10-04T21:35:00Z,27.4980,-83.7220,3.0,14.06,-99.99,18.0,'1111122,1111122,1111122' 
COMPS,ioos:station:USF.COMPS:C12:1,2017-10-04T22:05:00Z,27.4980,-83.7220,3.0,12.21,-99.99,15.75,'1111122,1111122,1111122' 
COMPS,ioos:station:USF.COMPS:C12:1,2017-10-04T22:35:00Z,27.4980,-83.7220,3.0,13.59,-99.99,16.82,'1111122,1111122,1111122' 
COMPS,ioos:station:USF.COMPS:C12:1,2017-10-04T23:05:00Z,27.4980,-83.7220,3.0,12.49,-99.99,15.56,'1111122,1111122,1111122' 
COMPS,ioos:station:USF.COMPS:C12:1,2017-10-04T23:35:00Z,27.4980,-83.7220,3.0,11.63,-99.99,14.49,'1111122,1111122,1111122' 
COMPS,ioos:station:USF.COMPS:C12:1,2017-10-05T00:05:00Z,27.4980,-83.7220,3.0,11.86,-99.99,14.54,'1111122,1111122,1111122' 
COMPS,ioos:station:USF.COMPS:C12:1,2017-10-05T00:35:00Z,27.4980,-83.7220,3.0,11.74,-99.99,14.43,'1111122,1111122,1111122' 
COMPS,ioos:station:USF.COMPS:C12:1,2017-10-05T01:05:00Z,27.4980,-83.7220,3.0,12.03,-99.99,15.02,'1111122,1111122,1111122' 